Overview Statistics Trail Chart Weather Telemetry Raw packets
 

This is the latest recevied weather packets stored in our database for station/object KI5NXU. If no packets are shown the sender has not sent any weather packets the latest 10 day(s).

<< 86 87 88 89 90 91 92 >>
Time Temp. Humidity Pressure Rain* Wind** Luminosity Snow
1787749847 28.33° C 66% 1016.7 hPa 0 mm - 69 W/m² -
1787749542 27.78° C 65% 1016.6 hPa 0 mm - 78 W/m² -
1787749237 27.78° C 68% 1016.8 hPa 0 mm - 67 W/m² -
1787748933 27.78° C 67% 1016.7 hPa 0 mm - 55 W/m² -
1787748632 27.78° C 68% 1016.8 hPa 0 mm - 42 W/m² -
1787748328 27.78° C 69% 1016.7 hPa 0 mm - 35 W/m² -
1787748024 27.22° C 72% 1016.6 hPa 0 mm - 29 W/m² -
1787747718 26.67° C 74% 1016 hPa 0 mm - 25 W/m² -
1787747414 26.67° C 75% 1016 hPa 0 mm - 21 W/m² -
1787747108 26.67° C 74% 1016 hPa 0 mm - 16 W/m² -
1787746805 26.67° C 74% 1016 hPa 0 mm - 12 W/m² -
1787746503 26.67° C 75% 1016.1 hPa 0 mm - 7 W/m² -
1787746202 26.67° C 75% 1015.9 hPa 0 mm - 2 W/m² -
1787745896 26.67° C 75% 1016.1 hPa 0 mm - 1 W/m² -
1787745595 26.67° C 73% 1015.7 hPa 0 mm - 0 W/m² -
1787745285 26.67° C 71% 1015.8 hPa 0 mm - 0 W/m² -
1787744985 27.22° C 71% 1015.5 hPa 0 mm - 0 W/m² -
1787744681 26.67° C 70% 1015.7 hPa 0 mm - 0 W/m² -
1787744378 26.67° C 71% 1015.4 hPa 0 mm - 0 W/m² -
1787744073 26.67° C 71% 1015.3 hPa 0 mm - 0 W/m² -
1787743772 26.67° C 70% 1015.5 hPa 0 mm - 0 W/m² -
1787743472 27.22° C 69% 1015.4 hPa 0 mm - 0 W/m² -
1787743169 27.22° C 69% 1015.6 hPa 0 mm - 0 W/m² -
1787742864 27.22° C 68% 1015.3 hPa 0 mm - 0 W/m² -
1787742560 27.22° C 69% 1015.3 hPa 0 mm - 0 W/m² -

* Rain latest hour (hover to see other rain measurements)
** Current wind speed in m/s (hover to see current wind gust speed)